This is the latest recevied weather packets stored in our database for station/object KC1TWD. If no packets are shown the sender has not sent any weather packets the latest 10 day(s).
| Time | Temp. | Humidity | Pressure | Rain* | Wind** | Luminosity | Snow |
|---|---|---|---|---|---|---|---|
| 1778003505 | 28.33° C | 35% | 1005.1 hPa | 0 mm | - | - | - |
| 1778003202 | 28.33° C | 35% | 1005.1 hPa | 0 mm | - | - | - |
| 1778002898 | 28.89° C | 34% | 1005.4 hPa | 0 mm | - | - | - |
| 1778002595 | 28.33° C | 34% | 1005.3 hPa | 0 mm | - | - | - |
| 1778002292 | 28.33° C | 35% | 1005.2 hPa | 0 mm | - | - | - |
| 1778001989 | 28.33° C | 37% | 1005.3 hPa | 0 mm | - | - | - |
| 1778001686 | 28.33° C | 36% | 1005.4 hPa | 0 mm | - | - | - |
| 1778001381 | 27.78° C | 35% | 1005.4 hPa | 0 mm | - | - | - |
| 1778001078 | 27.22° C | 37% | 1005.3 hPa | 0 mm | - | - | - |
| 1778000775 | 27.22° C | 35% | 1005.6 hPa | 0 mm | - | - | - |
| 1778000472 | 27.22° C | 37% | 1005.7 hPa | 0 mm | - | - | - |
| 1778000172 | 27.22° C | 37% | 1005.7 hPa | 0 mm | - | - | - |
| 1777999869 | 27.78° C | 36% | 1005.9 hPa | 0 mm | - | - | - |
| 1777999564 | 27.78° C | 38% | 1005.8 hPa | 0 mm | - | - | - |
| 1777999262 | 28.33° C | 36% | 1005.9 hPa | 0 mm | - | - | - |
| 1777998961 | 27.78° C | 37% | 1006 hPa | 0 mm | - | - | - |
| 1777998657 | 27.22° C | 37% | 1006.1 hPa | 0 mm | - | - | - |
| 1777998355 | 27.22° C | 37% | 1006.2 hPa | 0 mm | - | - | - |
| 1777998053 | 26.67° C | 39% | 1006.5 hPa | 0 mm | - | - | - |
| 1777997749 | 27.22° C | 39% | 1006.6 hPa | 0 mm | - | - | - |
| 1777997447 | 26.67° C | 41% | 1006.7 hPa | 0 mm | - | - | - |
| 1777997145 | 27.22° C | 38% | 1006.8 hPa | 0 mm | - | - | - |
| 1777996842 | 27.22° C | 39% | 1006.9 hPa | 0 mm | - | - | - |
| 1777996537 | 26.67° C | 40% | 1007 hPa | 0 mm | - | - | - |
| 1777996234 | 27.22° C | 39% | 1007.1 hPa | 0 mm | - | - | - |
* Rain latest hour (hover to see other rain measurements)
** Current wind speed in m/s (hover to see current wind gust speed)